Orbital Elements at Epoch 2459200.5 (2020-Dec-17.0) TDB
Reference: JPL 20 (heliocentric ecliptic J2000)
Element | Value | Uncertainty (1-sigma) | Units |
e | .2402707061060884 | 4.7586e-08 | |
a | 2.319136331332789 | 6.983e-09 | au |
q | 1.761915807447177 | 1.1204e-07 | au |
i | 3.989203273907693 | 4.9391e-06 | deg |
node | 276.8581508702675 | 6.0771e-05 | deg |
peri | 90.80715225545326 | 6.1919e-05 | deg |
M | 99.76833929530292 | 1.2977e-05 | deg |
tp | 2458842.998318674100 (2019-Dec-25.49831867) | 4.5677e-05 | TDB |
period | 1289.994463036866 3.53 | 5.8263e-06 1.595e-08 | d yr |
n | .279070965275695 | 1.2604e-09 | deg/d |
Q | 2.876356855218402 | 8.6608e-09 | au |
|
| | Orbit Determination Parameters
Additional Information
|